Location: Newark
(34.1765°N, 84.7452°W)
Time: 05:13:46
(UTC+00:00)

N. Korean satellite - Visible Passes

Search period start: 15 December 2019 00:00
Search period end: 25 December 2019 00:00
Orbit: 455 x 507 km, 97.2° (Epoch: 14 December)

Date Brightness Start Highest point End Pass type
(mag) Time Alt. Az. Time Alt. Az. Time Alt. Az.
15 Dec 9.0 10:49:00 10° NE 10:51:47 22° E 10:54:33 10° SSE visible
15 Dec 6.9 22:52:54 10° S 22:56:36 76° W 23:00:17 10° NNW visible
16 Dec 10.2 10:26:05 10° E 10:26:11 10° E 10:26:18 10° E visible
16 Dec 7.2 11:56:34 10° N 11:59:41 31° WNW 12:02:45 10° SW visible
17 Dec 6.3 11:30:51 10° N 11:34:19 79° WNW 11:37:43 10° SSW visible
17 Dec 9.7 23:36:31 10° SW 23:39:11 19° W 23:41:51 10° NW visible
18 Dec 7.9 11:05:36 10° NNE 11:08:52 40° E 11:12:05 10° S visible
18 Dec 8.1 23:10:10 10° S 23:13:39 41° W 23:17:08 10° NNW visible
19 Dec 9.5 10:40:57 10° NE 10:43:20 17° E 10:45:41 10° SE visible
20 Dec 6.8 11:48:01 10° N 11:51:17 41° WNW 11:54:31 10° SSW visible
20 Dec 10.2 23:55:14 10° WSW 23:56:19 11° W 23:57:24 10° WNW visible
21 Dec 6.6 11:22:28 10° NNE 11:25:53 76° E 11:29:17 10° S visible
21 Dec 9.3 23:27:45 10° SSW 23:30:45 24° W 23:33:45 10° NW visible
22 Dec 8.5 10:57:21 10° NE 11:00:24 30° E 11:03:27 10° SSE visible
22 Dec 7.5 23:01:41 10° S 23:05:15 54° W 23:08:49 10° NNW visible
23 Dec 9.8 10:33:04 10° ENE 10:34:50 13° E 10:36:36 10° SE visible
23 Dec 7.6 12:05:25 10° NNW 12:08:13 24° WNW 12:10:59 10° SW visible
24 Dec 6.4 11:39:30 10° N 11:42:52 56° WNW 11:46:13 10° SSW visible
24 Dec 9.9 23:45:52 10° SW 23:47:51 14° W 23:49:50 10° WNW visible
